Погода в Кальниболоте

Украина / Кировоградская область     48°45′00″N   30°59′20″E
темп.,
°C
ветер,
м/с
пор.,
м/с
влажн.,
%
обл.,
%
осадки,
мм/ч
давл.,
гПа
погр.,
м
21 апреля, ср
ср2100:00+6зсз35845 0.0 100996
03:00+5зсз35925 0.0 101184
06:00+4з35905 0.0 101183
09:00+9з457192 0.0 1013503
12:00+12з575986 0.5 10131620
15:00+11зсз4560100 0.9 10141100
18:00+12зюз355983 0.0 1014960
21:00+8ююз34757 0.0 101651
22 апреля, чт
чт2200:00+7ю34765 0.0 101759
03:00+6ююз47825 0.0 1017115
06:00+6ююз35835 0.0 101877
09:00+11ююз57660 0.0 1019375
12:00+15ююз675238 0.3 10181650
15:00+17юз6842100 0.3 10172581
18:00+15ю595893 0.0 1017505
21:00+11ю7147426 0.0 1017391
23 апреля, пт
пт2300:00+10ю6148076 0.1 1016320
03:00+8ю512915 0.6 1016274
06:00+7ю4109317 0.3 1015269
09:00+10зюз448184 0.5 1015622
12:00+9ссз5584100 0.2 1016566
15:00+7ссз7783100 0.3 1017807
18:00+5с4791100 1.5 1017572
21:00+5юз118925 1.8 101811
24 апреля, сб
сб2400:00+4зюз36925 0.0 1018131
03:00+2з37870 0.0 1018130
06:00+1з368788 0.0 1017110
09:00+5з6876100 0.0 1018979
12:00+5зсз8106991 0.8 10191332
15:00+8зсз91145100 1.1 10182311
18:00+8зсз7114919 0.0 10192302
21:00+4з410654 0.1 1021242
25 апреля, вс
вс2500:00+2з411730 0.0 1021262
03:00+1з410760 0.0 1021215
06:000з410795 0.0 1021190
09:00+6з47555 0.0 1021709
12:00+9з5746100 0.0 10201963
15:00+5сз6886100 0.7 1020719
18:00+8сз475086 0.3 10191930
21:00+3сз38695 0.3 1020167